Tallahassee, FL

4:32 PM EDT on August 20, 2017 (GMT -0400)
Tallahassee Regional

Weather History for KTLH - December, 2011

Change the Weather History Date:

Monday, December 5, 2011

  Actual Average Record
Temperature  
Mean Temperature 63 °F 55 °F  
Max Temperature 78 °F 67 °F 82 °F (2013)
Min Temperature 47 °F 43 °F 21 °F (1974)
Degree Days  
Heating Degree Days 2    
Month to date heating degree days 47  
Since 1 July heating degree days 280  
Cooling Degree Days 0    
Month to date cooling degree days 0  
Year to date cooling degree days 2927  
Growing Degree Days 12 (Base 50)    
Moisture  
Dew Point 54 °F    
Average Humidity 78    
Maximum Humidity 100    
Minimum Humidity 56    
Precipitation  
Precipitation 0.00 in 0.13 in 2.48 in (2016)
Month to date precipitation 0.00 0.65  
Year to date precipitation 30.41 55.98  
Sea Level Pressure  
Sea Level Pressure 30.14 in    
Wind  
Wind Speed 4 mph (SE)    
Max Wind Speed 20 mph    
Max Gust Speed 26 mph    
Visibility 6 miles    
Events Fog    
T = Trace of Precipitation, MM = Missing Value Source: NWS Daily Summary

Daily Weather History Graph

Daily Weather History Graph

Search for Another Location

Airport or City:

Trip Planner

Search our weather history database for the weather conditions in past years. The results will help you decide how hot, cold, wet, or windy it might be!

Date:

Astronomy

Dec. 05, 2011 Rise Set
Actual Time 7:19 AM EST 5:36 PM EST
Civil Twilight 6:53 AM EST 6:02 PM EST
Nautical Twilight 6:23 AM EST 6:32 PM EST
Astronomical Twilight 5:54 AM EST 7:01 PM EST
Moon 2:21 PM EST (12/5) 2:53 AM EST (12/5)
Length of Visible Light 11h 09m
Length of Day
10h 16m
Waxing Gibbous, 79% of the Moon is Illuminated
Dec 5
Waxing Gibbous
Dec 10
Full
Dec 17
Last Quarter
Dec 24
New
Jan 1
First Quarter

Hourly Weather History & Observations

Time (EST) Temp. Dew Point Humidity Pressure Visibility Wind Dir Wind Speed Gust Speed Precip Events Conditions
12:53 AM 60.1 °F 57.0 °F 90% 30.19 in 10.0 mi East 3.5 mph - N/A   Clear
1:53 AM 57.0 °F 55.0 °F 93% 30.17 in 10.0 mi ESE 3.5 mph - N/A   Clear
2:53 AM 55.9 °F 55.0 °F 97% 30.16 in 10.0 mi Calm Calm - N/A   Clear
3:42 AM 51.8 °F 51.8 °F 100% 30.16 in 1.2 mi Calm Calm - N/A   Partly Cloudy
3:49 AM 50.0 °F 50.0 °F 100% 30.16 in 0.8 mi Calm Calm - N/A   Mist
3:53 AM 50.0 °F 50.0 °F 100% 30.16 in 1.0 mi Calm Calm - N/A   Mist
4:01 AM 51.8 °F 50.0 °F 94% 30.15 in 0.5 mi Calm Calm - N/A Fog Fog
4:17 AM 51.8 °F 51.8 °F 100% 30.15 in 0.2 mi Calm Calm - N/A Fog Fog
4:28 AM 50.0 °F 50.0 °F 100% 30.15 in 0.5 mi Calm Calm - N/A Fog Fog
4:38 AM 50.0 °F 48.2 °F 94% 30.15 in 1.5 mi Calm Calm - N/A   Mostly Cloudy
4:42 AM 50.0 °F 48.2 °F 94% 30.15 in 2.0 mi Calm Calm - N/A   Scattered Clouds
4:51 AM 50.0 °F 50.0 °F 100% 30.15 in 4.0 mi Calm Calm - N/A   Partly Cloudy
4:53 AM 48.9 °F 48.9 °F 100% 30.15 in 7.0 mi Calm Calm - N/A   Partly Cloudy
5:28 AM 48.2 °F 48.2 °F 100% 30.15 in 1.8 mi Calm Calm - N/A   Mostly Cloudy
5:36 AM 48.2 °F 48.2 °F 100% 30.15 in 0.5 mi Calm Calm - N/A Fog Fog
5:53 AM 50.0 °F 48.9 °F 96% 30.15 in 0.5 mi Calm Calm - N/A Fog Fog
6:43 AM 48.2 °F 48.2 °F 100% 30.16 in 7.0 mi Calm Calm - N/A Fog Patches of Fog
6:53 AM 48.0 °F 48.0 °F 100% 30.16 in 7.0 mi Calm Calm - N/A Fog Patches of Fog
7:03 AM 48.2 °F 48.2 °F 100% 30.16 in 2.5 mi Calm Calm - N/A   Mostly Cloudy
7:12 AM 48.2 °F 46.4 °F 93% 30.16 in 6.0 mi Calm Calm - N/A   Mostly Cloudy
7:53 AM 50.0 °F 48.9 °F 96% 30.16 in 2.5 mi Calm Calm - N/A   Clear
8:07 AM 51.8 °F 51.8 °F 100% 30.16 in 6.0 mi Calm Calm - N/A   Clear
8:53 AM 59.0 °F 57.0 °F 93% 30.17 in 10.0 mi ESE 9.2 mph - N/A   Clear
9:53 AM 66.0 °F 57.9 °F 75% 30.17 in 10.0 mi SE 6.9 mph - N/A   Clear
10:53 AM 72.0 °F 59.0 °F 64% 30.17 in 10.0 mi SSE 9.2 mph - N/A   Clear
11:53 AM 75.9 °F 60.1 °F 58% 30.14 in 10.0 mi SSE 16.1 mph 23.0 mph N/A   Partly Cloudy
1:00 PM 75.2 °F 60.8 °F 61% 30.12 in 10.0 mi SSE 16.1 mph 23.0 mph N/A   Scattered Clouds
1:53 PM 75.9 °F 60.1 °F 58% 30.09 in 10.0 mi SSE 12.7 mph 21.9 mph N/A   Mostly Cloudy
2:53 PM 77.0 °F 60.1 °F 56% 30.08 in 10.0 mi South 10.4 mph - N/A   Scattered Clouds
3:53 PM 75.0 °F 60.1 °F 60% 30.09 in 10.0 mi South 10.4 mph - N/A   Partly Cloudy
4:53 PM 73.0 °F 60.1 °F 64% 30.10 in 10.0 mi SSE 8.1 mph - N/A   Partly Cloudy
5:53 PM 70.0 °F 61.0 °F 73% 30.10 in 10.0 mi South 4.6 mph - N/A   Partly Cloudy
6:53 PM 66.9 °F 60.1 °F 79% 30.10 in 10.0 mi Calm Calm - N/A   Scattered Clouds
7:53 PM 63.0 °F 60.1 °F 90% 30.10 in 10.0 mi SE 4.6 mph - N/A   Partly Cloudy
8:53 PM 62.1 °F 59.0 °F 90% 30.09 in 10.0 mi South 4.6 mph - N/A   Partly Cloudy
9:53 PM 60.1 °F 57.0 °F 90% 30.11 in 10.0 mi Calm Calm - N/A   Partly Cloudy
10:53 PM 59.0 °F 57.2 °F 94% 30.10 in 10.0 mi Calm Calm - N/A   Clear
11:53 PM 57.9 °F 55.9 °F 93% 30.10 in 10.0 mi Calm Calm - N/A   Clear